owner,sensor,date,latitude,longitude,vertical_datum,sea_water_practical_salinity,qcFlag 
SCCF RECON,ioos:station:SCCF:13:1,2015-08-01T00:00:00Z,26.5255,-82.0032,2.339,17.35,1111122 
SCCF RECON,ioos:station:SCCF:13:1,2015-08-01T01:00:00Z,26.5255,-82.0032,2.265,14.84,1111122 
SCCF RECON,ioos:station:SCCF:13:1,2015-08-01T02:00:00Z,26.5255,-82.0032,2.28,13.37,1111122 
SCCF RECON,ioos:station:SCCF:13:1,2015-08-01T03:00:00Z,26.5255,-82.0032,2.4,11.92,1111122 
SCCF RECON,ioos:station:SCCF:13:1,2015-08-01T04:00:00Z,26.5255,-82.0032,2.542,11.21,1111122 
SCCF RECON,ioos:station:SCCF:13:1,2015-08-01T05:00:00Z,26.5255,-82.0032,2.65,14.58,1111122 
SCCF RECON,ioos:station:SCCF:13:1,2015-08-01T06:00:00Z,26.5255,-82.0032,2.712,19.12,1111122 
SCCF RECON,ioos:station:SCCF:13:1,2015-08-01T07:00:00Z,26.5255,-82.0032,2.7,24.25,1111122 
SCCF RECON,ioos:station:SCCF:13:1,2015-08-01T08:00:00Z,26.5255,-82.0032,2.66,26.62,1111122 
SCCF RECON,ioos:station:SCCF:13:1,2015-08-01T09:00:00Z,26.5255,-82.0032,2.6,26.84,1111122 
SCCF RECON,ioos:station:SCCF:13:1,2015-08-01T10:00:00Z,26.5255,-82.0032,2.52,25.33,1111122 
SCCF RECON,ioos:station:SCCF:13:1,2015-08-01T11:00:00Z,26.5255,-82.0032,2.43,15.74,1111122 
SCCF RECON,ioos:station:SCCF:13:1,2015-08-01T12:00:00Z,26.5255,-82.0032,2.392,12.28,1111122 
SCCF RECON,ioos:station:SCCF:13:1,2015-08-01T13:00:00Z,26.5255,-82.0032,2.4,11.53,1111122 
SCCF RECON,ioos:station:SCCF:13:1,2015-08-01T14:00:00Z,26.5255,-82.0032,2.526,10.13,1111122 
SCCF RECON,ioos:station:SCCF:13:1,2015-08-01T15:00:00Z,26.5255,-82.0032,2.693,16.88,1111122 
SCCF RECON,ioos:station:SCCF:13:1,2015-08-01T16:00:00Z,26.5255,-82.0032,2.82,22.81,1111122 
SCCF RECON,ioos:station:SCCF:13:1,2015-08-01T17:00:00Z,26.5255,-82.0032,2.87,27.2,1111122 
SCCF RECON,ioos:station:SCCF:13:1,2015-08-01T18:00:00Z,26.5255,-82.0032,2.918,29.11,1111122 
SCCF RECON,ioos:station:SCCF:13:1,2015-08-01T19:00:00Z,26.5255,-82.0032,2.94,28.62,1111122 
SCCF RECON,ioos:station:SCCF:13:1,2015-08-01T20:00:00Z,26.5255,-82.0032,2.89,29.4,1111122 
SCCF RECON,ioos:station:SCCF:13:1,2015-08-01T21:00:00Z,26.5255,-82.0032,2.775,29.36,1111122 
SCCF RECON,ioos:station:SCCF:13:1,2015-08-01T22:00:00Z,26.5255,-82.0032,2.637,28.24,1111122 
SCCF RECON,ioos:station:SCCF:13:1,2015-08-01T23:00:00Z,26.5255,-82.0032,2.529,26.35,1111122 
SCCF RECON,ioos:station:SCCF:13:1,2015-08-02T00:00:00Z,26.5255,-82.0032,2.435,24.47,1111122 
SCCF RECON,ioos:station:SCCF:13:1,2015-08-02T01:00:00Z,26.5255,-82.0032,2.345,19.77,1111122 
SCCF RECON,ioos:station:SCCF:13:1,2015-08-02T02:00:00Z,26.5255,-82.0032,2.29,16.44,1111122 
SCCF RECON,ioos:station:SCCF:13:1,2015-08-02T03:00:00Z,26.5255,-82.0032,2.349,14.33,1111122 
SCCF RECON,ioos:station:SCCF:13:1,2015-08-02T04:00:00Z,26.5255,-82.0032,2.497,12.57,1111122 
SCCF RECON,ioos:station:SCCF:13:1,2015-08-02T05:00:00Z,26.5255,-82.0032,2.6,13.0,1111122 
SCCF RECON,ioos:station:SCCF:13:1,2015-08-02T06:00:00Z,26.5255,-82.0032,2.66,17.89,1111122 
SCCF RECON,ioos:station:SCCF:13:1,2015-08-02T07:00:00Z,26.5255,-82.0032,2.7,21.74,1111122 
SCCF RECON,ioos:station:SCCF:13:1,2015-08-02T08:00:00Z,26.5255,-82.0032,2.72,24.72,1111122 
SCCF RECON,ioos:station:SCCF:13:1,2015-08-02T09:00:00Z,26.5255,-82.0032,2.67,26.77,1111122 
SCCF RECON,ioos:station:SCCF:13:1,2015-08-02T10:00:00Z,26.5255,-82.0032,2.58,27.06,1111122 
SCCF RECON,ioos:station:SCCF:13:1,2015-08-02T11:00:00Z,26.5255,-82.0032,2.48,24.69,1111122 
SCCF RECON,ioos:station:SCCF:13:1,2015-08-02T12:00:00Z,26.5255,-82.0032,2.42,15.75,1111122 
SCCF RECON,ioos:station:SCCF:13:1,2015-08-02T13:00:00Z,26.5255,-82.0032,2.376,13.56,1111122 
SCCF RECON,ioos:station:SCCF:13:1,2015-08-02T14:00:00Z,26.5255,-82.0032,2.401,12.02,1111122 
SCCF RECON,ioos:station:SCCF:13:1,2015-08-02T15:00:00Z,26.5255,-82.0032,2.52,11.34,1111122 
SCCF RECON,ioos:station:SCCF:13:1,2015-08-02T16:00:00Z,26.5255,-82.0032,2.67,16.27,1111122 
SCCF RECON,ioos:station:SCCF:13:1,2015-08-02T17:00:00Z,26.5255,-82.0032,2.759,21.57,1111122 
SCCF RECON,ioos:station:SCCF:13:1,2015-08-02T18:00:00Z,26.5255,-82.0032,2.831,25.32,1111122 
SCCF RECON,ioos:station:SCCF:13:1,2015-08-02T19:00:00Z,26.5255,-82.0032,2.881,28.17,1111122 
SCCF RECON,ioos:station:SCCF:13:1,2015-08-02T20:00:00Z,26.5255,-82.0032,2.917,28.44,1111122 
SCCF RECON,ioos:station:SCCF:13:1,2015-08-02T21:00:00Z,26.5255,-82.0032,2.85,28.33,1111122 
SCCF RECON,ioos:station:SCCF:13:1,2015-08-02T22:00:00Z,26.5255,-82.0032,2.691,28.41,1111122 
SCCF RECON,ioos:station:SCCF:13:1,2015-08-02T23:00:00Z,26.5255,-82.0032,2.567,26.59,1111122 
SCCF RECON,ioos:station:SCCF:13:1,2015-08-03T00:00:00Z,26.5255,-82.0032,2.483,23.77,1111122 
SCCF RECON,ioos:station:SCCF:13:1,2015-08-03T01:00:00Z,26.5255,-82.0032,2.389,18.31,1111122 
SCCF RECON,ioos:station:SCCF:13:1,2015-08-03T02:00:00Z,26.5255,-82.0032,2.303,15.01,1111122 
SCCF RECON,ioos:station:SCCF:13:1,2015-08-03T03:00:00Z,26.5255,-82.0032,2.275,13.28,1111122 
SCCF RECON,ioos:station:SCCF:13:1,2015-08-03T04:00:00Z,26.5255,-82.0032,2.36,12.48,1111122 
SCCF RECON,ioos:station:SCCF:13:1,2015-08-03T05:00:00Z,26.5255,-82.0032,2.51,11.3,1111122 
SCCF RECON,ioos:station:SCCF:13:1,2015-08-03T06:00:00Z,26.5255,-82.0032,2.6,14.04,1111122 
SCCF RECON,ioos:station:SCCF:13:1,2015-08-03T07:00:00Z,26.5255,-82.0032,2.65,17.8,1111122 
SCCF RECON,ioos:station:SCCF:13:1,2015-08-03T08:00:00Z,26.5255,-82.0032,2.7,22.21,1111122 
SCCF RECON,ioos:station:SCCF:13:1,2015-08-03T09:00:00Z,26.5255,-82.0032,2.728,25.03,1111122 
SCCF RECON,ioos:station:SCCF:13:1,2015-08-03T10:00:00Z,26.5255,-82.0032,2.67,25.72,1111122 
SCCF RECON,ioos:station:SCCF:13:1,2015-08-03T11:00:00Z,26.5255,-82.0032,2.6,26.47,1111122 
SCCF RECON,ioos:station:SCCF:13:1,2015-08-03T12:00:00Z,26.5255,-82.0032,2.522,24.98,1111122 
SCCF RECON,ioos:station:SCCF:13:1,2015-08-03T13:00:00Z,26.5255,-82.0032,2.432,17.2,1111122 
SCCF RECON,ioos:station:SCCF:13:1,2015-08-03T14:00:00Z,26.5255,-82.0032,2.385,13.72,1111122 
SCCF RECON,ioos:station:SCCF:13:1,2015-08-03T15:00:00Z,26.5255,-82.0032,2.41,12.81,1111122 
SCCF RECON,ioos:station:SCCF:13:1,2015-08-03T16:00:00Z,26.5255,-82.0032,2.552,12.42,1111122 
SCCF RECON,ioos:station:SCCF:13:1,2015-08-03T17:00:00Z,26.5255,-82.0032,2.652,15.43,1111122 
SCCF RECON,ioos:station:SCCF:13:1,2015-08-03T18:00:00Z,26.5255,-82.0032,2.691,17.79,1111122 
SCCF RECON,ioos:station:SCCF:13:1,2015-08-03T19:00:00Z,26.5255,-82.0032,2.716,20.32,1111122 
SCCF RECON,ioos:station:SCCF:13:1,2015-08-03T20:00:00Z,26.5255,-82.0032,2.76,23.1,1111122 
SCCF RECON,ioos:station:SCCF:13:1,2015-08-03T21:00:00Z,26.5255,-82.0032,2.76,24.61,1111122 
SCCF RECON,ioos:station:SCCF:13:1,2015-08-03T22:00:00Z,26.5255,-82.0032,2.687,25.85,1111122 
SCCF RECON,ioos:station:SCCF:13:1,2015-08-03T23:00:00Z,26.5255,-82.0032,2.562,24.06,1111122 
SCCF RECON,ioos:station:SCCF:13:1,2015-08-04T00:00:00Z,26.5255,-82.0032,2.46,18.77,1111122 
SCCF RECON,ioos:station:SCCF:13:1,2015-08-04T01:00:00Z,26.5255,-82.0032,2.39,15.45,1111122 
SCCF RECON,ioos:station:SCCF:13:1,2015-08-04T02:00:00Z,26.5255,-82.0032,2.319,13.51,1111122 
SCCF RECON,ioos:station:SCCF:13:1,2015-08-04T03:00:00Z,26.5255,-82.0032,2.25,11.48,1111122 
SCCF RECON,ioos:station:SCCF:13:1,2015-08-04T04:00:00Z,26.5255,-82.0032,2.26,10.43,1111122 
SCCF RECON,ioos:station:SCCF:13:1,2015-08-04T05:00:00Z,26.5255,-82.0032,2.39,9.71,1111122 
SCCF RECON,ioos:station:SCCF:13:1,2015-08-04T06:00:00Z,26.5255,-82.0032,2.54,9.97,1111122 
SCCF RECON,ioos:station:SCCF:13:1,2015-08-04T07:00:00Z,26.5255,-82.0032,2.62,14.14,1111122 
SCCF RECON,ioos:station:SCCF:13:1,2015-08-04T08:00:00Z,26.5255,-82.0032,2.68,20.05,1111122 
SCCF RECON,ioos:station:SCCF:13:1,2015-08-04T09:00:00Z,26.5255,-82.0032,2.73,24.76,1111122 
SCCF RECON,ioos:station:SCCF:13:1,2015-08-04T10:00:00Z,26.5255,-82.0032,2.72,25.8,1111122 
SCCF RECON,ioos:station:SCCF:13:1,2015-08-04T11:00:00Z,26.5255,-82.0032,2.641,25.76,1111122 
SCCF RECON,ioos:station:SCCF:13:1,2015-08-04T12:00:00Z,26.5255,-82.0032,2.56,25.91,1111122 
SCCF RECON,ioos:station:SCCF:13:1,2015-08-04T13:00:00Z,26.5255,-82.0032,2.47,21.52,1111122 
SCCF RECON,ioos:station:SCCF:13:1,2015-08-04T14:00:00Z,26.5255,-82.0032,2.395,14.62,1111122 
SCCF RECON,ioos:station:SCCF:13:1,2015-08-04T15:00:00Z,26.5255,-82.0032,2.35,12.98,1111122 
SCCF RECON,ioos:station:SCCF:13:1,2015-08-04T16:00:00Z,26.5255,-82.0032,2.35,11.61,1111122 
SCCF RECON,ioos:station:SCCF:13:1,2015-08-04T17:00:00Z,26.5255,-82.0032,2.46,9.98,1111122 
SCCF RECON,ioos:station:SCCF:13:1,2015-08-04T18:00:00Z,26.5255,-82.0032,2.571,12.84,1111122 
SCCF RECON,ioos:station:SCCF:13:1,2015-08-04T19:00:00Z,26.5255,-82.0032,2.65,17.33,1111122 
SCCF RECON,ioos:station:SCCF:13:1,2015-08-04T20:00:00Z,26.5255,-82.0032,2.69,21.44,1111122 
SCCF RECON,ioos:station:SCCF:13:1,2015-08-04T21:00:00Z,26.5255,-82.0032,2.72,25.62,1111122 
SCCF RECON,ioos:station:SCCF:13:1,2015-08-04T22:00:00Z,26.5255,-82.0032,2.72,26.71,1111122 
SCCF RECON,ioos:station:SCCF:13:1,2015-08-04T23:00:00Z,26.5255,-82.0032,2.658,26.87,1111122 
SCCF RECON,ioos:station:SCCF:13:1,2015-08-05T00:00:00Z,26.5255,-82.0032,2.553,24.33,1111122 
SCCF RECON,ioos:station:SCCF:13:1,2015-08-05T01:00:00Z,26.5255,-82.0032,2.48,21.55,1111122 
SCCF RECON,ioos:station:SCCF:13:1,2015-08-05T02:00:00Z,26.5255,-82.0032,2.41,15.82,1111122 
SCCF RECON,ioos:station:SCCF:13:1,2015-08-05T03:00:00Z,26.5255,-82.0032,2.339,12.44,1111122 
SCCF RECON,ioos:station:SCCF:13:1,2015-08-05T04:00:00Z,26.5255,-82.0032,2.291,10.49,1111122 
SCCF RECON,ioos:station:SCCF:13:1,2015-08-05T05:00:00Z,26.5255,-82.0032,2.34,9.56,1111122 
SCCF RECON,ioos:station:SCCF:13:1,2015-08-05T06:00:00Z,26.5255,-82.0032,2.49,9.19,1111122 
SCCF RECON,ioos:station:SCCF:13:1,2015-08-05T07:00:00Z,26.5255,-82.0032,2.59,15.48,1111122 
SCCF RECON,ioos:station:SCCF:13:1,2015-08-05T08:00:00Z,26.5255,-82.0032,2.66,18.9,1111122 
SCCF RECON,ioos:station:SCCF:13:1,2015-08-05T09:00:00Z,26.5255,-82.0032,2.728,23.06,1111122 
SCCF RECON,ioos:station:SCCF:13:1,2015-08-05T10:00:00Z,26.5255,-82.0032,2.76,26.14,1111122 
SCCF RECON,ioos:station:SCCF:13:1,2015-08-05T11:00:00Z,26.5255,-82.0032,2.72,26.92,1111122 
SCCF RECON,ioos:station:SCCF:13:1,2015-08-05T12:00:00Z,26.5255,-82.0032,2.619,27.47,1111122 
SCCF RECON,ioos:station:SCCF:13:1,2015-08-05T13:00:00Z,26.5255,-82.0032,2.511,26.33,1111122 
SCCF RECON,ioos:station:SCCF:13:1,2015-08-05T14:00:00Z,26.5255,-82.0032,2.434,17.93,1111122 
SCCF RECON,ioos:station:SCCF:13:1,2015-08-05T15:00:00Z,26.5255,-82.0032,2.372,13.55,1111122 
SCCF RECON,ioos:station:SCCF:13:1,2015-08-05T16:00:00Z,26.5255,-82.0032,2.313,11.56,1111122 
SCCF RECON,ioos:station:SCCF:13:1,2015-08-05T17:00:00Z,26.5255,-82.0032,2.3,10.57,1111122 
SCCF RECON,ioos:station:SCCF:13:1,2015-08-05T18:00:00Z,26.5255,-82.0032,2.401,9.59,1111122 
SCCF RECON,ioos:station:SCCF:13:1,2015-08-05T19:00:00Z,26.5255,-82.0032,2.508,10.2,1111122 
SCCF RECON,ioos:station:SCCF:13:1,2015-08-05T20:00:00Z,26.5255,-82.0032,2.57,14.84,1111122 
SCCF RECON,ioos:station:SCCF:13:1,2015-08-05T21:00:00Z,26.5255,-82.0032,2.624,19.31,1111122 
SCCF RECON,ioos:station:SCCF:13:1,2015-08-05T22:00:00Z,26.5255,-82.0032,2.66,22.08,1111122 
SCCF RECON,ioos:station:SCCF:13:1,2015-08-05T23:00:00Z,26.5255,-82.0032,2.659,25.73,1111122 
SCCF RECON,ioos:station:SCCF:13:1,2015-08-06T00:00:00Z,26.5255,-82.0032,2.61,26.7,1111122 
SCCF RECON,ioos:station:SCCF:13:1,2015-08-06T01:00:00Z,26.5255,-82.0032,2.54,26.75,1111122 
SCCF RECON,ioos:station:SCCF:13:1,2015-08-06T02:00:00Z,26.5255,-82.0032,2.46,24.06,1111122 
SCCF RECON,ioos:station:SCCF:13:1,2015-08-06T03:00:00Z,26.5255,-82.0032,2.4,16.58,1111122 
SCCF RECON,ioos:station:SCCF:13:1,2015-08-06T04:00:00Z,26.5255,-82.0032,2.35,12.9,1111122 
SCCF RECON,ioos:station:SCCF:13:1,2015-08-06T05:00:00Z,26.5255,-82.0032,2.34,11.24,1111122 
SCCF RECON,ioos:station:SCCF:13:1,2015-08-06T06:00:00Z,26.5255,-82.0032,2.42,9.77,1111122 
SCCF RECON,ioos:station:SCCF:13:1,2015-08-06T07:00:00Z,26.5255,-82.0032,2.53,16.05,1111122 
SCCF RECON,ioos:station:SCCF:13:1,2015-08-06T08:00:00Z,26.5255,-82.0032,2.63,20.26,1111122 
SCCF RECON,ioos:station:SCCF:13:1,2015-08-06T09:00:00Z,26.5255,-82.0032,2.68,23.5,1111122 
SCCF RECON,ioos:station:SCCF:13:1,2015-08-06T10:00:00Z,26.5255,-82.0032,2.73,26.35,1111122 
SCCF RECON,ioos:station:SCCF:13:1,2015-08-06T11:00:00Z,26.5255,-82.0032,2.75,27.93,1111122 
SCCF RECON,ioos:station:SCCF:13:1,2015-08-06T12:00:00Z,26.5255,-82.0032,2.71,27.66,1111122 
SCCF RECON,ioos:station:SCCF:13:1,2015-08-06T13:00:00Z,26.5255,-82.0032,2.63,27.99,1111122 
SCCF RECON,ioos:station:SCCF:13:1,2015-08-06T14:00:00Z,26.5255,-82.0032,2.541,27.81,1111122 
SCCF RECON,ioos:station:SCCF:13:1,2015-08-06T15:00:00Z,26.5255,-82.0032,2.46,21.38,1111122 
SCCF RECON,ioos:station:SCCF:13:1,2015-08-06T16:00:00Z,26.5255,-82.0032,2.37,15.3,1111122 
SCCF RECON,ioos:station:SCCF:13:1,2015-08-06T17:00:00Z,26.5255,-82.0032,2.311,13.41,1111122 
SCCF RECON,ioos:station:SCCF:13:1,2015-08-06T18:00:00Z,26.5255,-82.0032,2.299,12.53,1111122 
SCCF RECON,ioos:station:SCCF:13:1,2015-08-06T19:00:00Z,26.5255,-82.0032,2.369,12.07,1111122 
SCCF RECON,ioos:station:SCCF:13:1,2015-08-06T20:00:00Z,26.5255,-82.0032,2.465,12.18,1111122 
SCCF RECON,ioos:station:SCCF:13:1,2015-08-06T21:00:00Z,26.5255,-82.0032,2.52,15.64,1111122 
SCCF RECON,ioos:station:SCCF:13:1,2015-08-06T22:00:00Z,26.5255,-82.0032,2.55,18.91,1111122 
SCCF RECON,ioos:station:SCCF:13:1,2015-08-06T23:00:00Z,26.5255,-82.0032,2.58,21.92,1111122 
SCCF RECON,ioos:station:SCCF:13:1,2015-08-07T00:00:00Z,26.5255,-82.0032,2.61,23.96,1111122 
SCCF RECON,ioos:station:SCCF:13:1,2015-08-07T01:00:00Z,26.5255,-82.0032,2.62,25.36,1111122 
SCCF RECON,ioos:station:SCCF:13:1,2015-08-07T02:00:00Z,26.5255,-82.0032,2.6,26.0,1111122 
SCCF RECON,ioos:station:SCCF:13:1,2015-08-07T03:00:00Z,26.5255,-82.0032,2.54,26.28,1111122 
SCCF RECON,ioos:station:SCCF:13:1,2015-08-07T04:00:00Z,26.5255,-82.0032,2.49,23.85,1111122 
SCCF RECON,ioos:station:SCCF:13:1,2015-08-07T05:00:00Z,26.5255,-82.0032,2.46,20.28,1111122 
SCCF RECON,ioos:station:SCCF:13:1,2015-08-07T06:00:00Z,26.5255,-82.0032,2.44,15.77,1111122 
SCCF RECON,ioos:station:SCCF:13:1,2015-08-07T07:00:00Z,26.5255,-82.0032,2.5,15.5,1111122 
SCCF RECON,ioos:station:SCCF:13:1,2015-08-07T08:00:00Z,26.5255,-82.0032,2.6,23.95,1111122 
SCCF RECON,ioos:station:SCCF:13:1,2015-08-07T09:00:00Z,26.5255,-82.0032,2.7,21.91,1111122 
SCCF RECON,ioos:station:SCCF:13:1,2015-08-07T10:00:00Z,26.5255,-82.0032,2.75,25.3,1111122 
SCCF RECON,ioos:station:SCCF:13:1,2015-08-07T11:00:00Z,26.5255,-82.0032,2.78,26.66,1111122 
SCCF RECON,ioos:station:SCCF:13:1,2015-08-07T12:00:00Z,26.5255,-82.0032,2.8,28.33,1111122 
SCCF RECON,ioos:station:SCCF:13:1,2015-08-07T13:00:00Z,26.5255,-82.0032,2.79,28.84,1111122 
SCCF RECON,ioos:station:SCCF:13:1,2015-08-07T14:00:00Z,26.5255,-82.0032,2.711,29.1,1111122 
SCCF RECON,ioos:station:SCCF:13:1,2015-08-07T15:00:00Z,26.5255,-82.0032,2.603,28.81,1111122 
SCCF RECON,ioos:station:SCCF:13:1,2015-08-07T16:00:00Z,26.5255,-82.0032,2.51,23.04,1111122 
SCCF RECON,ioos:station:SCCF:13:1,2015-08-07T17:00:00Z,26.5255,-82.0032,2.42,18.58,1111122 
SCCF RECON,ioos:station:SCCF:13:1,2015-08-07T18:00:00Z,26.5255,-82.0032,2.333,17.82,1111122 
SCCF RECON,ioos:station:SCCF:13:1,2015-08-07T19:00:00Z,26.5255,-82.0032,2.277,16.3,1111122 
SCCF RECON,ioos:station:SCCF:13:1,2015-08-07T20:00:00Z,26.5255,-82.0032,2.29,15.72,1111122 
SCCF RECON,ioos:station:SCCF:13:1,2015-08-07T21:00:00Z,26.5255,-82.0032,2.41,14.79,1111122 
SCCF RECON,ioos:station:SCCF:13:1,2015-08-07T22:00:00Z,26.5255,-82.0032,2.46,14.77,1111122 
SCCF RECON,ioos:station:SCCF:13:1,2015-08-07T23:00:00Z,26.5255,-82.0032,2.48,16.24,1111122 
SCCF RECON,ioos:station:SCCF:13:1,2015-08-08T00:00:00Z,26.5255,-82.0032,2.505,17.49,1111122 
SCCF RECON,ioos:station:SCCF:13:1,2015-08-08T01:00:00Z,26.5255,-82.0032,2.53,19.29,1111122 
SCCF RECON,ioos:station:SCCF:13:1,2015-08-08T02:00:00Z,26.5255,-82.0032,2.53,20.26,1111122 
SCCF RECON,ioos:station:SCCF:13:1,2015-08-08T03:00:00Z,26.5255,-82.0032,2.55,21.19,1111122 
SCCF RECON,ioos:station:SCCF:13:1,2015-08-08T04:00:00Z,26.5255,-82.0032,2.54,23.51,1111122 
SCCF RECON,ioos:station:SCCF:13:1,2015-08-08T05:00:00Z,26.5255,-82.0032,2.492,22.56,1111122 
SCCF RECON,ioos:station:SCCF:13:1,2015-08-08T06:00:00Z,26.5255,-82.0032,2.43,20.92,1111122 
SCCF RECON,ioos:station:SCCF:13:1,2015-08-08T07:00:00Z,26.5255,-82.0032,2.39,16.63,1111122 
SCCF RECON,ioos:station:SCCF:13:1,2015-08-08T08:00:00Z,26.5255,-82.0032,2.45,15.45,1111122 
SCCF RECON,ioos:station:SCCF:13:1,2015-08-08T09:00:00Z,26.5255,-82.0032,2.56,20.84,1111122 
SCCF RECON,ioos:station:SCCF:13:1,2015-08-08T10:00:00Z,26.5255,-82.0032,2.66,19.9,1111122 
SCCF RECON,ioos:station:SCCF:13:1,2015-08-08T11:00:00Z,26.5255,-82.0032,2.739,25.04,1111122 
SCCF RECON,ioos:station:SCCF:13:1,2015-08-08T12:00:00Z,26.5255,-82.0032,2.789,26.12,1111122 
SCCF RECON,ioos:station:SCCF:13:1,2015-08-08T13:00:00Z,26.5255,-82.0032,2.791,26.72,1111122 
SCCF RECON,ioos:station:SCCF:13:1,2015-08-08T14:00:00Z,26.5255,-82.0032,2.76,27.09,1111122 
SCCF RECON,ioos:station:SCCF:13:1,2015-08-08T15:00:00Z,26.5255,-82.0032,2.662,28.35,1111122 
SCCF RECON,ioos:station:SCCF:13:1,2015-08-08T16:00:00Z,26.5255,-82.0032,2.561,26.33,1111122 
SCCF RECON,ioos:station:SCCF:13:1,2015-08-08T17:00:00Z,26.5255,-82.0032,2.48,23.84,1111122 
SCCF RECON,ioos:station:SCCF:13:1,2015-08-08T18:00:00Z,26.5255,-82.0032,2.41,22.17,1111122 
SCCF RECON,ioos:station:SCCF:13:1,2015-08-08T19:00:00Z,26.5255,-82.0032,2.338,19.87,1111122 
SCCF RECON,ioos:station:SCCF:13:1,2015-08-08T20:00:00Z,26.5255,-82.0032,2.28,17.89,1111122 
SCCF RECON,ioos:station:SCCF:13:1,2015-08-08T21:00:00Z,26.5255,-82.0032,2.284,15.8,1111122 
SCCF RECON,ioos:station:SCCF:13:1,2015-08-08T22:00:00Z,26.5255,-82.0032,2.345,14.36,1111122 
SCCF RECON,ioos:station:SCCF:13:1,2015-08-08T23:00:00Z,26.5255,-82.0032,2.403,12.91,1111122 
SCCF RECON,ioos:station:SCCF:13:1,2015-08-09T00:00:00Z,26.5255,-82.0032,2.382,13.13,1111122 
SCCF RECON,ioos:station:SCCF:13:1,2015-08-09T01:00:00Z,26.5255,-82.0032,2.44,13.72,1111122 
SCCF RECON,ioos:station:SCCF:13:1,2015-08-09T02:00:00Z,26.5255,-82.0032,2.56,16.68,1111122 
SCCF RECON,ioos:station:SCCF:13:1,2015-08-09T03:00:00Z,26.5255,-82.0032,2.585,19.29,1111122 
SCCF RECON,ioos:station:SCCF:13:1,2015-08-09T04:00:00Z,26.5255,-82.0032,2.56,23.36,1111122 
SCCF RECON,ioos:station:SCCF:13:1,2015-08-09T05:00:00Z,26.5255,-82.0032,2.54,24.21,1111122 
SCCF RECON,ioos:station:SCCF:13:1,2015-08-09T06:00:00Z,26.5255,-82.0032,2.52,24.86,1111122 
SCCF RECON,ioos:station:SCCF:13:1,2015-08-09T07:00:00Z,26.5255,-82.0032,2.49,23.98,1111122 
SCCF RECON,ioos:station:SCCF:13:1,2015-08-09T08:00:00Z,26.5255,-82.0032,2.47,22.05,1111122 
SCCF RECON,ioos:station:SCCF:13:1,2015-08-09T09:00:00Z,26.5255,-82.0032,2.51,22.49,1111122 
SCCF RECON,ioos:station:SCCF:13:1,2015-08-09T10:00:00Z,26.5255,-82.0032,2.62,25.5,1111122 
SCCF RECON,ioos:station:SCCF:13:1,2015-08-09T11:00:00Z,26.5255,-82.0032,2.69,22.07,1111122 
SCCF RECON,ioos:station:SCCF:13:1,2015-08-09T12:00:00Z,26.5255,-82.0032,2.74,25.61,1111122 
SCCF RECON,ioos:station:SCCF:13:1,2015-08-09T13:00:00Z,26.5255,-82.0032,2.783,26.39,1111122 
SCCF RECON,ioos:station:SCCF:13:1,2015-08-09T14:00:00Z,26.5255,-82.0032,2.8,27.15,1111122 
SCCF RECON,ioos:station:SCCF:13:1,2015-08-09T15:00:00Z,26.5255,-82.0032,2.79,27.79,1111122 
SCCF RECON,ioos:station:SCCF:13:1,2015-08-09T16:00:00Z,26.5255,-82.0032,2.711,28.4,1111122 
SCCF RECON,ioos:station:SCCF:13:1,2015-08-09T17:00:00Z,26.5255,-82.0032,2.59,27.49,1111122 
SCCF RECON,ioos:station:SCCF:13:1,2015-08-09T18:00:00Z,26.5255,-82.0032,2.487,22.96,1111122 
SCCF RECON,ioos:station:SCCF:13:1,2015-08-09T19:00:00Z,26.5255,-82.0032,2.39,19.64,1111122 
SCCF RECON,ioos:station:SCCF:13:1,2015-08-09T20:00:00Z,26.5255,-82.0032,2.308,18.61,1111122 
SCCF RECON,ioos:station:SCCF:13:1,2015-08-09T21:00:00Z,26.5255,-82.0032,2.249,16.87,1111122 
SCCF RECON,ioos:station:SCCF:13:1,2015-08-09T22:00:00Z,26.5255,-82.0032,2.236,15.72,1111122 
SCCF RECON,ioos:station:SCCF:13:1,2015-08-09T23:00:00Z,26.5255,-82.0032,2.326,14.54,1111122 
SCCF RECON,ioos:station:SCCF:13:1,2015-08-10T00:00:00Z,26.5255,-82.0032,2.42,13.72,1111122 
SCCF RECON,ioos:station:SCCF:13:1,2015-08-10T01:00:00Z,26.5255,-82.0032,2.48,14.65,1111122 
SCCF RECON,ioos:station:SCCF:13:1,2015-08-10T02:00:00Z,26.5255,-82.0032,2.54,16.78,1111122 
SCCF RECON,ioos:station:SCCF:13:1,2015-08-10T03:00:00Z,26.5255,-82.0032,2.64,19.19,1111122 
SCCF RECON,ioos:station:SCCF:13:1,2015-08-10T04:00:00Z,26.5255,-82.0032,2.65,22.46,1111122 
SCCF RECON,ioos:station:SCCF:13:1,2015-08-10T05:00:00Z,26.5255,-82.0032,2.61,25.11,1111122 
SCCF RECON,ioos:station:SCCF:13:1,2015-08-10T06:00:00Z,26.5255,-82.0032,2.561,26.19,1111122 
SCCF RECON,ioos:station:SCCF:13:1,2015-08-10T07:00:00Z,26.5255,-82.0032,2.52,26.05,1111122 
SCCF RECON,ioos:station:SCCF:13:1,2015-08-10T08:00:00Z,26.5255,-82.0032,2.49,24.04,1111122 
SCCF RECON,ioos:station:SCCF:13:1,2015-08-10T09:00:00Z,26.5255,-82.0032,2.48,21.63,1111122 
SCCF RECON,ioos:station:SCCF:13:1,2015-08-10T10:00:00Z,26.5255,-82.0032,2.512,19.79,1111122 
SCCF RECON,ioos:station:SCCF:13:1,2015-08-10T11:00:00Z,26.5255,-82.0032,2.63,22.26,1111122 
SCCF RECON,ioos:station:SCCF:13:1,2015-08-10T12:00:00Z,26.5255,-82.0032,2.72,23.2,1111122 
SCCF RECON,ioos:station:SCCF:13:1,2015-08-10T13:00:00Z,26.5255,-82.0032,2.77,26.12,1111122 
SCCF RECON,ioos:station:SCCF:13:1,2015-08-10T14:00:00Z,26.5255,-82.0032,2.822,27.77,1111122 
SCCF RECON,ioos:station:SCCF:13:1,2015-08-10T15:00:00Z,26.5255,-82.0032,2.865,29.05,1111122 
SCCF RECON,ioos:station:SCCF:13:1,2015-08-10T16:00:00Z,26.5255,-82.0032,2.85,29.0,1111122 
SCCF RECON,ioos:station:SCCF:13:1,2015-08-10T17:00:00Z,26.5255,-82.0032,2.76,29.08,1111122 
SCCF RECON,ioos:station:SCCF:13:1,2015-08-10T18:00:00Z,26.5255,-82.0032,2.63,29.02,1111122 
SCCF RECON,ioos:station:SCCF:13:1,2015-08-10T19:00:00Z,26.5255,-82.0032,2.515,24.55,1111122 
SCCF RECON,ioos:station:SCCF:13:1,2015-08-10T20:00:00Z,26.5255,-82.0032,2.421,21.37,1111122 
SCCF RECON,ioos:station:SCCF:13:1,2015-08-10T21:00:00Z,26.5255,-82.0032,2.336,18.13,1111122 
SCCF RECON,ioos:station:SCCF:13:1,2015-08-10T22:00:00Z,26.5255,-82.0032,2.269,15.2,1111122 
SCCF RECON,ioos:station:SCCF:13:1,2015-08-10T23:00:00Z,26.5255,-82.0032,2.272,14.43,1111122 
SCCF RECON,ioos:station:SCCF:13:1,2015-08-11T00:00:00Z,26.5255,-82.0032,2.37,13.18,1111122 
SCCF RECON,ioos:station:SCCF:13:1,2015-08-11T01:00:00Z,26.5255,-82.0032,2.47,12.25,1111122 
SCCF RECON,ioos:station:SCCF:13:1,2015-08-11T02:00:00Z,26.5255,-82.0032,2.511,14.35,1111122 
SCCF RECON,ioos:station:SCCF:13:1,2015-08-11T03:00:00Z,26.5255,-82.0032,2.591,17.81,1111122 
SCCF RECON,ioos:station:SCCF:13:1,2015-08-11T04:00:00Z,26.5255,-82.0032,2.66,21.94,1111122 
SCCF RECON,ioos:station:SCCF:13:1,2015-08-11T05:00:00Z,26.5255,-82.0032,2.69,24.8,1111122 
SCCF RECON,ioos:station:SCCF:13:1,2015-08-11T06:00:00Z,26.5255,-82.0032,2.669,26.89,1111122 
SCCF RECON,ioos:station:SCCF:13:1,2015-08-11T07:00:00Z,26.5255,-82.0032,2.6,27.45,1111122 
SCCF RECON,ioos:station:SCCF:13:1,2015-08-11T08:00:00Z,26.5255,-82.0032,2.55,27.07,1111122 
SCCF RECON,ioos:station:SCCF:13:1,2015-08-11T09:00:00Z,26.5255,-82.0032,2.509,25.11,1111122 
SCCF RECON,ioos:station:SCCF:13:1,2015-08-11T10:00:00Z,26.5255,-82.0032,2.5,22.43,1111122 
SCCF RECON,ioos:station:SCCF:13:1,2015-08-11T11:00:00Z,26.5255,-82.0032,2.58,18.41,1111122 
SCCF RECON,ioos:station:SCCF:13:1,2015-08-11T12:00:00Z,26.5255,-82.0032,2.7,24.07,1111122 
SCCF RECON,ioos:station:SCCF:13:1,2015-08-11T13:00:00Z,26.5255,-82.0032,2.76,24.25,1111122 
SCCF RECON,ioos:station:SCCF:13:1,2015-08-11T14:00:00Z,26.5255,-82.0032,2.81,26.11,1111122 
SCCF RECON,ioos:station:SCCF:13:1,2015-08-11T15:00:00Z,26.5255,-82.0032,2.87,27.69,1111122 
SCCF RECON,ioos:station:SCCF:13:1,2015-08-11T16:00:00Z,26.5255,-82.0032,2.89,29.01,1111122 
SCCF RECON,ioos:station:SCCF:13:1,2015-08-11T17:00:00Z,26.5255,-82.0032,2.86,29.4,1111122 
SCCF RECON,ioos:station:SCCF:13:1,2015-08-11T18:00:00Z,26.5255,-82.0032,2.75,29.91,1111122 